Regional Weather Roundup
Issued by NWS

Home | Current Version | Previous Version | Text Only | Print | Product List | Glossary On
Versions: 1 2 3 4 5 6 7 8 9 10 11 12 13 14 15 16 17 18 19 20 21 22 23 24 25 26 27 28 29 30 31 32 33 34 35 36 37 38 39 40 41 42 43 44 45 46 47 48 49 50
000
ASUS43 KOAX 212002
RWRNE

WEATHER ROUNDUP FOR NEBRASKA
NATIONAL WEATHER SERVICE OMAHA NE
300 PM CDT THU AUG 21 2014

NOTES: SATELLITE DATA IS BEING USED TO AUGMENT CLOUD COVER ABOVE
       12000 FEET.
       "FAIR" INDICATES FEW OR NO CLOUDS BELOW 12,000 FEET WITH NO
       SIGNIFICANT WEATHER AND/OR OBSTRUCTIONS TO VISIBILITY.

  * THESE STATIONS DO NOT REPORT WEATHER SUCH AS RAIN...SNOW OR FOG.

NEZ001>004-019>022-054>056-212100-
NEBRASKA PANHANDLE

CITY           SKY/WX    TMP DP  RH WIND       PRES   REMARKS
SCOTTSBLUFF    SUNNY     87  51  28 NW7       30.01F
ALLIANCE       SUNNY     87  51  28 VRB5      30.00S
CHADRON        SUNNY     87  54  32 CALM      29.95F
KIMBALL        MOSUNNY   84  44  24 N10       30.06S
SIDNEY         SUNNY     87  48  25 N9        30.04S
$$

NEZ057>060-069>072-079>082-212100-
SOUTHWEST NEBRASKA

CITY           SKY/WX    TMP DP  RH WIND       PRES   REMARKS
NORTH PLATTE   SUNNY     89  64  43 SE6       29.91S HX  90
IMPERIAL       SUNNY     90  54  29 N10       29.95F
LEXINGTON      SUNNY     87  69  53 N5        29.89F HX  91
MCCOOK         MOSUNNY   94  54  25 N6        29.89F HX  92
OGALLALA       SUNNY     86  54  33 CALM      29.95S
$$

NEZ005>010-023>029-035>040-094-212100-
NORTH CENTRAL NEBRASKA

CITY           SKY/WX    TMP DP  RH WIND       PRES   REMARKS
VALENTINE      MOSUNNY   87  58  37 N9        29.93R
AINSWORTH      SUNNY     83  60  44 N6        29.92S
BROKEN BOW     SUNNY     88  70  55 N6        29.90S HX  93
O`NEILL        SUNNY     85  68  55 N7        29.88S
ORD            SUNNY     86  68  54 N8        29.86S
THEDFORD       SUNNY     86  60  40 NE7       29.95S
$$

NEZ041-046>049-061>064-073>077-083>087-212100-
SOUTH CENTRAL NEBRASKA

CITY           SKY/WX    TMP DP  RH WIND       PRES   REMARKS
GRAND ISLAND   MOSUNNY   87  70  56 VRB5      29.87S HX  92
AURORA         MOSUNNY   83  73  72 SW6       29.88R
HASTINGS       SUNNY     84  69  60 W6        29.87S
HEBRON         MOSUNNY   89  68  49 S12       29.83F HX  92
HOLDREGE       SUNNY     86  68  54 NW3       29.88S
KEARNEY *      SUNNY     86  70  58 CALM      29.88S HX  90
YORK           PTSUNNY   82 N/A N/A SW9       29.87R
$$

NEZ011>018-030>034-042>045-212100-
NORTHEAST NEBRASKA

CITY           SKY/WX    TMP DP  RH WIND       PRES   REMARKS
NORFOLK        MOSUNNY   90  71  53 W9        29.82S HX  96
ALBION         SUNNY     88  68  51 NW3       29.85R HX  91
BLAIR          MOSUNNY   88  70  56 SW13      29.85R HX  93
FREMONT        SUNNY     90  68  48 SW9       29.84S HX  93
TEKAMAH        SUNNY     92  72  51 SW10      29.81S HX  99
WAYNE          MOSUNNY   88  74  63 NW9       29.83R HX  97
$$

NEZ050>053-065>068-078-088>093-212100-
SOUTHEAST NEBRASKA

CITY           SKY/WX    TMP DP  RH WIND       PRES   REMARKS
LINCOLN        PTSUNNY   86  70  58 SW10      29.85S HX  90
OMAHA EPPLEY   MOSUNNY   89  68  49 S12       29.84R HX  93
BEATRICE       CLOUDY    87  74  65 S13       29.83F HX  95
FALLS CITY     MOSUNNY   99  72  41 S15G24    29.82S HX 108
NEBRASKA CITY  PTSUNNY   87  73  62 NW3       29.85R HX  93
PLATTSMOUTH    PTSUNNY   87  72  59 SW3       29.85S HX  93
$$

NEZ044-045-051>053-067-212100-
OMAHA AREA

CITY           SKY/WX    TMP DP  RH WIND       PRES   REMARKS
OMAHA EPPLEY   MOSUNNY   89  68  49 S12       29.84R HX  93
BLAIR          MOSUNNY   88  70  56 SW13      29.85R HX  93
FREMONT        SUNNY     90  68  48 SW9       29.84S HX  93
MILLARD        MOSUNNY   88  71  57 W10       29.84S HX  94
OFFUTT AFB     MOSUNNY   88  75  65 SW7       29.84S HX  98
PLATTSMOUTH    PTSUNNY   87  72  59 SW3       29.85S HX  93
WAHOO          FAIR      89  67  48 SW10      29.84R HX  92
$$



USA.gov is the U.S. government's official web portal to all federal, state and local government web resources and services.